Weather in Mysore

India     12°11′25″N   76°52′40″E
temp.,
°C
wind,
m/s
gust,
m/s
humid.,
%
clouds,
%
prec.,
mm/h
press.,
hPa
HPBL,
m
25 october, mon
mon2523:30+22wnw3589100 12.4 101487
02:30+21s1191100 1.4 101321
05:30+21nw119178 1.4 101211
08:30+23nne128420 0.0 1014360
11:30+27ene347042 0.1 10131162
14:30+27ene347011 2.4 1009976
17:30+23ene358666 5.8 1010144
20:30+22ene228717 1.3 101319
26 october, tue
tue2623:30+21ne118711 1.5 101211
02:30+20ne11905 0.0 101011
05:30+20ene119284 0.0 101112
08:30+23ene238336 0.1 1013327
11:30+26ene337199 1.9 10121049
14:30+27ene337044 2.4 10081076
17:30+24ene34855 5.8 100994
20:30+21ene228864 5.1 101242
27 october, wed
wed2723:30+22ene228390 6.3 101223
02:30+21ne228856 0.0 101019
05:30+21ne2290100 0.0 101140
08:30+22ene248772 0.0 1014253
11:30+26ene4568100 0.1 10121281
14:30+27ene346891 0.2 10081300
17:30+25e117430 0.3 100914
20:30+23ne2277100 0.0 101217
28 october, thu
thu2823:30+22ene227887 0.1 101231
02:30+21ene1186100 0.0 101015
05:30+20ene1188100 0.0 101114
08:30+23ene2481100 0.0 1013327
11:30+26ne4568100 0.1 10121207
14:30+26ene456951 1.1 1009944
17:30+23ene3687100 3.6 1010189
20:30+22ene2288100 1.2 101227
29 october, fri
fri2923:30+21ne2291100 1.2 101224
02:30+20ne2293100 0.1 101124
05:30+20nne2293100 0.1 101228
08:30+22ne2488100 0.2 1014265
11:30+22ne368999 0.4 1013511
14:30+21ne359596 1.1 1011295
17:30+22nne3492100 1.6 1012169
20:30+21nne2595100 0.9 1014146